GEFSCGP_500_meanwind_066.txt.gz
Wind_Speed
14 14 14 15 16 18 19 21 23 24 24 25 26 27 28 28 29 30 31 32 34 35 37 38 38 39 39 40 41 43 44 45 45 45 45 45 44 42 40 37 36 35 34 32
13 13 13 14 15 17 19 20 22 23 23 25 26 27 28 28 29 30 32 33 34 34 36 36 37 37 38 39 40 41 43 44 45 46 46 46 46 45 44 40 37 36 35 36
11 11 12 13 15 16 18 19 20 21 23 23 25 25 26 27 29 30 31 32 33 33 34 34 36 37 38 38 38 39 40 42 43 44 44 45 47 47 46 45 42 39 38 36
9 9 11 12 14 15 16 18 19 20 22 23 24 25 26 27 28 29 30 31 32 33 32 33 33 34 34 34 34 35 35 36 39 41 41 42 43 45 46 47 45 43 41 39
7 8 9 11 12 14 15 17 18 20 21 23 23 25 25 26 27 28 29 30 31 30 30 30 30 29 29 28 29 30 31 32 33 35 37 39 39 41 43 44 44 43 42 40
5 6 7 9 11 13 15 17 18 19 21 22 23 24 25 25 26 26 27 27 28 28 27 27 26 26 26 26 26 26 27 28 29 31 33 34 35 37 38 39 40 40 40 39
3 4 6 8 10 13 15 17 19 21 21 22 23 24 24 24 24 24 24 25 25 25 24 24 23 22 22 22 22 22 22 23 23 25 27 29 29 30 31 33 34 35 35 35
1 3 6 8 11 13 16 18 20 21 22 22 22 22 22 22 22 23 24 24 24 23 22 21 20 20 20 19 19 19 19 18 18 20 21 22 22 23 25 27 29 30 31 31
3 4 6 9 12 14 16 18 20 21 22 21 21 22 21 21 22 22 22 22 22 22 21 20 19 18 17 16 16 16 15 15 14 15 15 15 15 17 20 22 24 27 28 29
4 5 7 10 13 15 17 19 20 21 21 21 21 21 21 21 22 21 20 20 20 20 19 18 18 17 15 14 14 14 13 13 12 12 10 10 10 12 14 16 19 22 24 25
5 6 9 11 14 16 18 19 20 20 21 22 22 21 21 21 21 20 20 19 19 19 17 17 17 17 15 15 14 13 13 11 10 9 7 7 7 8 9 11 14 17 19 21
6 8 10 12 15 16 18 20 20 21 21 22 22 21 21 20 20 20 19 18 18 18 18 18 18 18 17 16 15 15 13 12 10 9 7 5 4 5 6 8 9 12 14 17
7 9 11 13 15 17 19 20 20 21 21 22 22 21 21 19 19 19 18 17 18 17 17 17 18 19 18 17 16 15 14 13 11 9 8 6 5 4 3 4 5 8 9 10
8 10 12 14 16 18 19 20 21 21 22 23 23 21 21 19 19 18 17 17 18 18 18 18 19 19 19 19 18 17 15 13 12 10 9 7 6 4 3 2 3 4 6 7
9 11 12 14 16 18 19 20 21 22 22 23 22 21 20 19 19 18 17 17 18 19 19 19 19 19 19 20 19 18 16 15 14 13 12 10 8 6 6 4 4 4 4 3
9 11 13 15 16 18 19 20 21 22 22 22 21 20 20 19 19 18 18 18 18 19 20 20 20 20 20 20 20 20 18 16 14 13 12 10 9 8 7 6 4 3 3 3
9 11 13 15 16 17 18 20 20 20 21 21 21 21 20 20 20 19 19 19 19 20 20 21 21 21 21 21 21 20 19 18 16 15 14 12 11 10 9 8 7 6 4 3
9 10 12 14 15 16 18 19 19 19 20 20 20 20 20 20 20 19 19 19 19 20 20 21 21 22 22 22 22 22 21 20 18 17 16 15 14 12 11 10 8 6 6 5
8 10 11 13 14 15 17 18 18 18 18 19 19 20 20 19 19 19 19 19 19 20 21 21 22 22 23 23 23 23 22 22 21 19 18 17 16 14 13 12 11 9 8 6
7 9 10 12 13 14 16 16 17 17 17 18 19 19 19 19 19 19 19 19 19 20 21 21 22 22 23 24 24 24 24 23 22 21 20 18 18 16 15 14 12 11 10 8
6 8 9 11 12 13 14 15 16 16 16 16 17 18 18 18 18 18 18 19 19 20 21 21 22 22 23 24 24 24 24 24 23 22 21 21 20 19 17 16 14 13 11 10
6 7 8 10 10 11 12 13 14 15 15 15 15 16 16 17 17 17 17 18 18 19 20 21 21 22 23 23 24 24 24 24 23 22 22 22 21 20 19 18 16 15 13 12
5 6 8 9 9 10 11 12 12 13 13 14 14 14 14 15 15 15 16 16 17 18 19 20 20 21 22 22 23 23 24 24 24 23 23 22 22 21 20 19 18 17 16 14
6 6 7 8 9 9 10 11 11 11 12 12 12 12 13 13 13 14 15 15 16 16 17 18 19 20 21 22 22 22 23 23 23 23 23 23 22 22 21 21 20 19 18 16
7 7 7 8 9 9 10 10 10 11 11 11 11 11 11 11 12 12 13 14 14 15 16 17 18 19 20 20 21 21 22 22 23 22 22 22 22 22 21 21 20 20 19 17
9 8 8 8 9 9 9 10 10 10 10 10 10 9 10 10 10 11 12 12 13 14 15 16 17 17 18 19 20 20 21 21 22 22 22 22 22 22 22 21 21 20 19 18

GEFSCGP_500_meanwind_072.txt.gz
Wind_Speed
15 15 14 15 15 16 18 19 21 23 24 25 26 27 28 28 29 30 31 32 33 34 35 35 35 36 36 37 38 38 39 40 41 41 42 43 43 44 44 44 44 45 43 42
15 14 14 14 15 16 17 20 21 22 23 25 26 27 28 29 31 32 32 33 33 34 34 35 36 35 35 36 36 37 37 37 37 38 40 42 43 45 45 44 43 44 44 44
14 13 13 13 14 16 17 19 20 22 23 24 27 28 29 30 31 31 32 32 32 32 32 33 33 33 33 33 33 33 34 34 34 35 36 38 40 42 44 44 44 44 44 45
12 11 11 12 13 14 16 17 19 21 23 25 26 29 28 29 30 30 31 30 30 30 30 30 30 30 30 30 30 30 31 31 31 32 33 34 35 37 40 41 43 43 43 44
10 9 9 10 11 13 15 17 19 21 22 24 25 26 27 27 28 28 28 28 28 28 28 28 28 27 27 27 26 26 26 27 28 29 29 30 31 32 35 37 39 40 41 42
8 7 8 9 10 12 14 17 18 20 21 22 23 24 26 25 25 25 26 26 25 25 25 25 25 24 24 23 23 23 23 23 24 24 24 25 26 27 29 32 34 36 38 40
6 5 6 8 9 11 14 17 19 21 22 23 23 24 24 24 24 24 23 23 22 21 21 22 21 21 20 20 19 20 20 20 20 19 20 21 22 23 24 27 29 31 33 35
4 3 4 6 9 12 14 16 18 20 21 22 23 23 23 23 23 22 21 20 20 20 20 19 19 18 18 18 17 17 17 17 16 15 16 16 16 17 19 22 24 26 28 30
2 1 3 6 9 12 15 16 17 18 19 21 22 22 22 22 22 21 20 20 19 19 19 19 19 19 19 17 16 15 15 14 13 13 13 12 11 12 14 16 18 20 23 26
2 1 4 7 11 13 14 16 17 18 20 21 21 21 22 22 21 20 20 20 19 18 19 19 19 19 18 18 16 15 15 12 11 11 10 10 9 9 9 11 13 16 18 21
2 3 5 9 11 13 14 15 17 17 18 19 20 21 20 20 20 20 20 20 20 19 20 20 20 19 18 18 17 16 15 13 12 11 10 9 8 7 7 7 8 11 14 17
3 4 6 9 11 13 14 15 16 17 18 19 19 19 20 20 19 19 19 20 20 21 21 21 20 20 20 19 18 18 16 14 13 12 11 10 8 6 5 5 5 6 7 11
4 5 7 9 11 12 13 14 16 17 18 19 19 19 19 20 20 20 20 21 21 21 21 21 22 22 21 21 20 19 17 15 14 13 12 12 11 8 5 3 3 4 5 7
5 6 7 9 10 12 13 14 15 17 18 19 19 19 19 20 20 20 21 22 21 21 22 22 23 22 22 22 21 20 18 16 16 15 13 13 13 11 8 5 3 2 3 5
5 6 7 9 10 12 13 13 15 16 17 18 19 19 19 19 20 20 21 22 22 22 22 23 23 23 23 23 23 22 20 18 17 16 15 14 13 12 11 9 7 4 2 4
5 6 7 8 10 11 12 13 14 15 17 17 18 18 19 19 20 20 21 22 23 23 23 23 24 24 24 24 23 23 22 21 19 18 17 15 14 13 12 10 8 7 4 1
4 5 7 8 9 10 11 13 14 14 16 17 17 18 18 18 19 20 21 22 22 23 24 24 24 24 24 24 24 23 22 22 21 20 18 17 16 15 13 11 10 9 7 5
3 4 6 7 8 10 11 12 13 13 14 15 16 17 17 18 19 19 20 21 22 22 23 23 24 24 24 24 24 24 23 22 22 21 20 19 18 17 15 13 11 10 8 7
1 3 4 6 7 9 10 11 12 12 13 14 15 15 16 17 18 19 19 20 21 21 22 23 23 24 24 24 24 24 24 23 23 22 21 20 19 18 17 16 13 11 9 7
0 1 3 4 6 7 9 10 11 11 12 12 13 14 15 16 17 17 18 19 20 20 21 22 22 23 24 24 24 24 24 24 24 23 22 21 20 20 19 17 15 13 11 9
2 1 2 3 4 6 7 8 9 10 11 11 12 13 14 15 16 16 17 18 19 19 20 20 21 22 22 23 23 23 23 23 23 23 23 22 22 21 20 19 17 16 14 12
4 3 2 3 4 5 6 7 8 9 9 10 10 11 12 13 14 16 16 17 18 18 19 20 20 21 21 22 22 23 23 23 23 22 22 22 22 21 20 19 19 17 16 14
6 5 4 4 4 4 5 6 7 7 8 9 9 10 11 12 13 14 15 16 17 17 18 19 19 20 20 21 21 22 22 22 22 22 22 22 22 21 21 20 19 18 17 15
9 8 7 6 5 5 5 6 6 7 7 8 8 9 10 10 11 12 14 15 15 16 17 18 18 19 19 20 20 21 21 22 22 22 22 22 21 21 21 20 20 19 18 17
11 10 9 8 8 7 7 6 7 7 7 8 8 9 9 10 10 11 12 13 14 14 15 16 17 18 18 19 19 20 20 21 21 22 22 22 21 21 20 20 20 19 19 18
14 13 12 11 10 9 8 8 8 8 8 8 8 8 9 9 9 10 10 11 12 13 14 14 15 16 17 17 18 19 19 20 20 21 21 21 21 20 19 19 19 19 19 18

GEFSCGP_500_meanwind_078.txt.gz
Wind_Speed
14 14 15 14 14 16 17 19 22 26 26 29 30 30 31 30 30 32 32 33 33 34 34 34 34 35 35 35 36 36 36 37 37 38 38 39 39 40 40 40 40 39 39 38
15 15 14 14 15 16 18 19 22 25 24 27 30 31 30 28 29 29 30 31 31 31 32 32 32 32 32 32 33 33 34 34 35 36 36 37 38 38 39 39 40 40 39 39
15 14 13 14 15 16 17 18 21 24 25 26 28 29 28 28 28 28 29 29 29 29 29 29 30 30 29 29 30 30 30 30 31 31 32 33 35 35 36 37 37 38 39 39
14 13 12 13 14 15 17 18 20 22 24 26 26 28 28 29 30 30 30 29 29 28 28 28 28 28 28 27 27 27 27 27 27 28 28 29 30 31 32 34 34 35 36 37
13 11 11 12 13 14 16 17 18 20 21 21 22 24 27 28 31 31 30 29 29 28 29 28 27 27 26 25 25 24 24 23 23 24 24 25 26 27 28 30 30 31 33 34
10 10 10 10 12 13 15 16 17 17 18 19 21 22 25 28 30 29 29 29 28 28 28 28 27 26 25 24 23 22 21 20 20 20 20 20 21 22 24 26 26 28 29 30
10 8 8 9 10 11 13 15 16 16 17 19 21 21 23 25 26 26 27 27 28 28 27 26 26 25 24 23 22 21 20 18 17 17 17 17 17 17 18 20 22 24 26 27
7 6 6 7 9 10 11 12 13 13 11 15 18 19 21 22 23 25 26 26 27 27 26 26 25 24 23 22 21 19 18 17 16 16 15 15 14 13 14 15 17 20 23 25
7 4 4 6 7 9 10 10 11 12 12 12 16 18 19 21 23 25 26 27 27 27 27 26 25 24 23 22 20 19 18 17 17 16 15 14 13 12 12 12 13 15 17 20
6 4 3 4 6 7 8 9 10 11 12 12 14 18 22 22 24 25 26 27 27 27 27 26 25 24 23 22 21 20 20 18 17 16 15 14 13 11 11 10 10 11 12 14
5 4 2 3 5 6 7 8 10 11 13 13 15 17 20 21 23 24 26 27 27 27 26 25 25 25 24 24 23 22 20 19 18 17 17 16 14 12 10 9 8 8 9 10
5 3 2 2 4 5 7 9 10 11 13 14 15 16 19 21 22 24 25 26 27 27 26 26 25 26 25 25 24 24 22 20 19 19 18 17 16 14 12 10 8 8 7 8
5 3 1 1 3 5 6 8 10 11 12 14 15 17 19 20 22 23 24 25 26 26 27 26 26 26 26 26 25 25 24 22 22 21 19 18 17 16 15 12 9 8 7 7
4 2 1 2 4 5 6 8 9 11 12 14 15 16 18 19 21 22 23 24 25 26 26 27 27 26 26 26 26 25 25 24 24 22 21 20 19 17 15 14 11 9 8 6
3 2 0 1 3 4 6 7 9 10 12 13 14 16 17 19 20 22 23 24 24 25 26 27 27 27 27 27 27 26 25 25 25 24 23 22 20 19 17 15 14 11 9 8
3 1 0 1 2 3 5 6 8 9 11 12 14 15 17 18 20 21 22 23 24 24 25 26 26 26 27 27 27 27 26 26 25 25 25 24 23 21 19 17 16 14 11 9
2 1 1 1 2 3 4 6 7 8 10 11 13 15 16 17 19 20 21 22 23 23 24 25 25 26 27 27 27 27 27 27 26 26 26 25 24 22 21 19 18 16 14 12
3 2 2 2 2 3 4 5 6 7 9 10 12 14 16 17 18 19 20 21 22 22 23 24 25 25 26 27 27 27 27 27 26 26 26 26 26 24 23 21 19 18 17 15
4 4 3 3 3 3 4 5 6 6 8 9 11 12 14 16 17 18 20 20 21 22 23 23 23 24 25 26 27 27 27 27 27 27 27 27 27 26 25 23 21 19 18 17
6 6 5 5 5 4 4 5 6 6 7 9 10 11 13 14 15 17 19 19 20 21 21 22 22 23 24 25 26 26 27 27 27 27 27 27 27 27 25 24 23 21 20 18
8 8 7 7 7 6 5 6 7 7 8 9 9 10 12 13 14 16 17 18 19 19 20 21 21 22 23 24 25 25 26 26 26 26 26 27 27 27 26 24 23 22 21 20
10 10 9 9 9 7 7 8 8 8 9 9 10 10 11 12 13 14 15 16 17 18 19 20 20 21 22 23 23 24 25 25 26 26 26 26 26 26 26 25 23 23 22 21
12 12 11 11 10 9 9 9 9 10 10 10 10 11 11 12 13 13 14 15 16 16 17 18 19 20 20 21 22 23 23 24 25 25 25 25 25 25 25 25 24 23 22 22
14 14 14 13 13 12 12 12 11 11 11 11 11 12 12 12 12 12 12 13 14 15 15 16 17 18 19 20 20 21 22 23 24 24 24 24 24 25 25 25 24 23 22 22
17 16 16 16 16 15 15 14 14 13 13 13 13 13 13 13 12 12 12 13 13 13 14 15 16 17 18 18 19 20 20 21 22 23 23 23 23 24 24 24 23 23 23 22
20 20 19 19 19 18 17 17 16 16 15 15 14 14 14 13 13 13 13 13 13 13 13 13 14 15 16 17 17 18 19 19 20 21 22 22 23 22 22 22 22 22 22 22

GEFSCGP_500_meanwind_084.txt.gz
Wind_Speed
16 15 13 13 13 13 14 15 17 19 21 22 23 23 23 24 24 25 25 27 28 30 30 30 29 29 29 29 29 29 29 29 30 31 32 33 34 35 36 37 38 38 38 38
16 14 13 12 12 12 13 15 18 19 21 22 22 21 21 21 22 23 25 27 28 30 30 30 30 29 28 27 26 27 27 27 27 27 29 30 31 33 34 35 36 36 37 37
15 13 12 11 11 11 13 15 17 18 19 20 20 20 19 20 22 24 25 27 29 30 30 30 29 28 26 26 25 25 24 24 24 24 25 26 28 29 31 32 33 34 35 36
14 12 11 10 10 11 12 14 16 17 18 19 19 18 19 21 22 24 26 28 30 31 31 30 29 28 26 24 23 22 22 22 22 22 22 22 23 24 25 27 29 31 33 34
12 11 10 9 9 10 11 13 14 15 16 17 17 17 18 21 23 25 27 29 30 31 31 30 29 28 26 24 22 21 21 21 20 20 19 19 19 20 21 23 25 27 29 31
12 11 9 8 8 8 9 11 12 14 14 14 15 16 18 20 23 25 27 28 30 30 30 30 29 27 26 25 23 21 21 20 19 19 18 17 17 17 18 19 21 23 25 27
12 10 8 7 7 7 8 9 10 12 13 13 14 16 18 20 22 24 26 27 29 29 29 29 28 27 26 26 24 22 21 20 20 19 18 16 15 14 14 15 17 18 20 22
10 9 7 6 6 6 6 7 9 11 12 13 14 16 17 19 20 22 24 26 27 28 28 28 27 27 27 26 25 24 22 21 20 19 18 16 15 13 12 11 12 14 16 18
8 8 6 5 5 4 5 6 8 10 11 12 13 14 16 18 19 21 23 25 26 28 28 28 28 27 27 26 26 25 23 22 21 20 19 16 15 13 12 10 9 10 12 14
9 8 6 4 3 3 4 6 7 9 11 12 12 14 16 18 19 21 23 25 26 27 28 28 28 27 27 27 27 26 25 24 23 21 19 17 15 14 12 10 8 8 9 10
9 7 5 3 2 2 3 5 6 8 10 11 12 14 16 17 19 21 23 25 26 26 27 28 28 28 27 27 27 27 26 25 24 23 22 20 17 16 14 11 8 7 7 8
8 6 5 3 2 1 2 4 6 7 9 10 12 14 16 17 19 21 23 24 25 26 27 27 28 28 28 27 27 27 27 26 26 25 24 22 20 18 15 13 10 8 6 6
8 6 5 3 2 1 1 3 5 6 8 10 11 13 15 17 19 21 22 23 25 25 26 27 28 28 28 28 27 27 27 27 27 26 25 24 22 20 17 15 13 10 7 5
8 6 5 4 2 1 1 2 4 5 7 9 11 13 15 16 18 20 21 22 23 24 25 26 27 28 29 28 27 27 28 28 28 28 27 25 24 22 19 17 15 13 9 7
7 6 5 4 3 2 1 1 3 5 6 8 10 12 14 15 17 19 21 22 22 24 25 26 27 28 29 29 28 28 28 28 28 29 28 27 25 24 22 20 18 15 12 9
7 5 4 3 3 2 2 1 3 4 6 7 9 11 13 15 16 18 20 21 22 23 24 25 26 27 28 28 29 29 28 28 28 28 28 28 27 25 24 21 19 17 14 12
6 5 4 3 4 3 3 3 3 4 5 7 8 10 12 14 16 17 19 20 21 22 23 24 25 26 26 27 28 28 29 28 28 28 28 28 28 26 25 23 21 20 17 15
6 5 4 4 4 4 4 4 4 4 5 7 8 10 12 13 15 16 18 19 20 21 22 23 24 25 26 26 27 27 28 28 28 28 28 28 27 27 26 25 23 22 20 18
7 6 5 5 5 5 5 5 5 6 6 7 8 9 11 13 14 15 17 18 19 20 21 22 23 24 25 26 26 26 27 28 28 28 28 28 27 27 26 26 25 24 22 20
8 7 6 6 6 6 6 6 6 6 7 7 8 9 11 12 13 15 16 17 18 19 20 20 22 23 24 24 25 25 26 27 28 28 28 28 28 27 26 26 25 24 23 21
9 9 8 7 7 8 8 7 7 7 7 8 9 10 11 12 13 14 15 16 17 17 18 19 20 21 22 23 24 24 24 25 26 27 27 27 27 27 26 26 25 24 23 22
10 10 10 9 10 10 9 9 9 9 9 9 9 10 11 12 12 13 14 15 16 17 18 18 19 20 21 22 22 23 23 24 24 25 26 27 27 26 26 26 25 25 24 23
12 12 12 12 12 12 11 11 11 11 11 11 11 11 12 12 13 13 14 14 15 16 17 17 18 18 19 20 21 21 22 22 23 23 24 25 25 25 25 25 25 25 24 23
15 15 15 14 14 14 14 13 13 13 13 13 13 13 13 13 13 13 14 14 15 15 16 16 17 17 18 18 19 19 20 20 21 21 22 23 23 24 24 24 24 24 23 23
18 18 18 17 17 17 17 16 16 16 16 16 15 15 15 15 15 15 15 15 15 15 15 16 16 16 17 17 18 18 18 19 19 20 20 21 21 22 22 22 22 23 23 22
21 21 20 20 19 19 19 19 19 19 19 19 18 18 17 17 16 16 16 16 16 16 16 16 16 16 16 16 16 17 17 17 18 18 19 19 20 20 20 20 20 20 20 20

GEFSCGP_500_meanwind_090.txt.gz
Wind_Speed
17 16 15 14 14 14 14 15 15 15 16 17 17 18 20 20 21 22 23 24 25 26 27 28 28 28 29 29 29 28 26 25 25 24 24 25 25 26 28 30 31 32 34 36
18 16 15 14 13 13 14 14 14 14 15 16 17 18 19 19 20 21 22 24 25 26 27 28 29 29 28 28 28 27 26 25 24 23 22 22 23 23 24 26 29 30 32 34
18 16 14 13 13 13 13 13 13 14 14 15 16 16 17 18 19 20 22 23 25 27 27 28 29 29 28 28 28 27 26 25 24 23 22 21 21 22 22 24 26 28 30 32
18 15 14 13 13 12 12 12 12 13 13 14 15 15 16 17 18 20 22 24 25 27 28 29 29 29 28 28 27 27 27 25 24 23 22 21 21 21 21 22 23 25 27 30
17 15 14 13 12 11 10 11 11 12 12 13 14 14 15 16 18 20 22 24 26 28 29 29 29 29 29 28 28 27 27 26 25 23 22 22 21 20 20 19 20 21 23 25
17 15 13 12 10 9 9 10 10 10 11 11 12 13 14 16 18 20 22 25 27 28 28 29 29 29 30 29 29 28 27 26 25 24 23 22 21 19 19 17 16 17 18 21
16 14 12 10 9 8 8 9 9 9 10 10 11 12 14 16 18 20 23 24 26 27 28 29 29 30 30 30 29 29 28 27 26 25 24 23 21 19 17 15 14 14 15 17
15 13 11 9 8 7 7 7 8 9 8 9 10 12 14 16 18 20 23 24 25 27 27 28 29 30 30 30 29 29 28 28 28 27 25 24 22 20 18 15 13 12 12 13
14 13 11 9 7 6 5 6 6 7 7 8 9 11 13 15 17 20 22 24 25 26 27 28 29 29 30 30 29 29 29 29 29 28 27 25 23 22 19 17 14 12 11 10
14 12 10 8 6 5 4 4 4 5 6 7 8 11 13 15 17 19 21 23 25 26 27 28 29 29 30 30 30 30 29 29 29 28 27 26 25 23 21 19 16 13 10 8
13 12 10 8 6 5 4 3 3 4 5 7 8 10 12 14 16 18 20 22 24 25 27 28 29 29 30 30 30 30 30 30 30 29 28 27 26 25 22 20 17 14 11 8
13 12 9 8 7 5 4 2 2 3 5 7 8 10 12 14 16 18 19 21 23 24 26 27 28 29 30 30 30 30 31 31 31 30 29 28 28 27 25 22 19 15 12 9
13 11 10 8 7 6 4 2 2 3 5 6 8 10 12 14 16 17 19 20 22 23 25 27 28 29 29 30 30 31 31 31 31 31 30 29 28 27 26 24 21 18 15 11
12 11 10 8 7 6 4 2 3 3 5 6 8 10 12 13 15 17 18 20 21 22 24 26 27 28 29 29 30 31 31 31 32 32 31 30 29 28 26 25 23 21 18 15
11 11 10 8 7 6 4 3 3 4 5 6 8 9 11 13 15 16 18 19 20 22 23 25 26 27 28 29 29 30 30 31 32 32 32 31 30 29 27 26 24 22 21 18
11 10 9 8 7 6 5 4 4 4 6 7 8 10 11 12 14 15 17 18 20 21 22 24 25 27 28 28 28 29 29 30 31 32 32 32 31 30 29 27 24 23 21 20
10 10 8 7 7 6 5 5 5 5 6 7 8 9 11 12 14 15 16 18 19 20 21 22 24 25 27 27 28 28 28 29 30 31 31 32 32 32 30 28 25 24 22 21
10 9 8 7 7 7 6 6 6 6 7 8 9 10 11 12 13 14 16 17 18 19 20 21 23 24 25 26 27 27 28 28 29 30 31 31 32 33 32 30 28 25 24 23
9 8 8 7 7 7 6 6 6 7 8 8 9 10 11 12 13 14 15 16 17 18 19 20 21 23 24 25 25 26 27 28 28 29 30 31 31 32 32 31 29 27 25 25
9 8 8 8 7 7 7 7 7 8 9 9 10 11 11 12 13 14 15 16 17 18 19 20 20 22 23 24 24 25 25 26 27 28 28 29 30 30 31 30 29 28 27 26
10 10 9 9 9 10 9 9 9 10 10 11 11 11 12 13 14 14 15 16 16 17 18 19 20 21 22 22 23 24 24 25 26 27 27 27 28 28 29 29 29 28 27 26
12 12 12 12 12 12 11 11 11 12 12 12 13 13 14 14 15 15 16 16 17 17 18 19 20 20 21 22 22 23 23 24 25 25 26 26 26 27 27 27 27 27 27 26
13 13 14 14 14 13 13 13 14 14 14 14 14 15 15 16 16 17 17 17 18 18 18 19 20 20 21 21 22 22 23 23 23 24 25 25 25 25 25 25 25 25 25 25
15 15 15 16 16 15 15 16 16 16 16 16 17 17 18 18 18 19 19 19 19 19 20 20 20 21 21 21 21 21 22 22 23 23 23 24 24 23 23 23 23 23 23 23
17 17 18 18 17 18 18 18 18 18 19 19 19 20 20 20 20 21 21 21 21 21 21 21 21 21 21 21 21 21 21 22 22 22 22 22 22 22 22 21 21 21 21 21
21 20 20 20 20 20 20 20 21 21 21 21 22 22 22 22 22 23 23 23 23 23 23 23 23 22 22 22 22 22 22 22 22 22 21 21 21 21 21 20 20 19 19 19

GEFSCGP_500_meanwind_096.txt.gz
Wind_Speed
17 17 15 14 13 12 12 11 11 11 11 11 12 13 14 15 15 17 18 19 21 23 24 25 26 26 27 27 26 25 25 25 25 24 24 23 23 23 23 24 25 26 29 31
19 17 16 14 13 12 11 11 10 10 10 10 11 12 13 13 14 15 17 19 21 23 24 25 26 26 27 27 26 26 25 25 25 24 23 23 22 22 22 22 22 24 26 28
19 18 16 14 13 12 11 10 9 9 9 9 10 10 11 12 13 14 17 19 21 22 24 25 26 26 27 27 26 26 26 26 25 25 24 23 21 21 20 19 20 21 23 25
20 18 16 14 13 12 10 9 8 8 8 9 9 9 9 10 12 14 16 18 21 22 24 25 25 26 27 27 27 26 26 26 26 25 24 23 22 20 19 18 18 18 19 21
20 18 16 14 13 11 9 8 7 7 7 7 7 7 8 10 12 14 16 18 20 22 24 25 25 26 27 27 27 27 27 27 27 26 25 24 22 21 19 18 17 16 16 18
20 18 16 14 12 10 9 8 6 5 6 5 5 6 7 9 11 13 16 18 20 22 23 24 25 26 27 28 27 27 28 28 28 28 27 25 24 23 21 18 16 14 13 14
19 18 16 14 12 10 8 6 5 4 4 4 4 5 7 9 11 13 15 18 20 22 23 24 25 26 27 28 28 28 29 29 29 28 28 27 26 24 22 19 16 13 10 10
18 17 15 13 11 9 8 6 4 3 2 2 3 5 6 8 10 12 15 17 19 21 23 24 25 26 27 28 28 28 29 30 29 29 28 28 27 25 23 21 18 13 9 8
18 17 15 13 11 10 8 6 4 3 2 1 3 5 6 8 10 12 14 16 18 21 23 24 25 26 27 28 28 29 29 30 30 30 29 29 27 26 24 22 20 15 11 8
18 16 14 12 11 10 8 6 5 3 2 1 2 4 6 8 10 12 14 16 18 20 22 23 25 26 27 28 28 29 29 30 30 31 30 30 28 26 25 23 21 18 14 10
18 16 14 12 11 10 8 7 5 4 2 1 2 4 5 7 9 11 13 15 17 19 21 23 24 25 26 27 28 29 29 30 30 31 31 31 30 28 26 25 22 20 17 13
17 15 13 12 11 10 9 7 6 5 3 2 2 3 5 7 9 11 13 15 17 18 20 22 23 24 25 26 27 28 29 30 30 31 31 31 31 29 27 26 24 22 19 16
17 15 13 12 11 10 9 8 6 5 4 3 2 3 4 6 8 10 12 14 16 18 20 21 23 23 24 26 27 28 29 29 30 31 31 31 31 30 28 27 26 23 21 19
16 15 14 13 12 11 9 8 7 6 4 3 2 3 4 6 8 10 12 13 15 17 19 20 21 23 24 25 26 27 28 29 30 30 30 31 31 30 29 28 27 25 23 20
16 14 14 13 12 11 10 9 8 7 5 4 3 3 4 6 8 9 11 13 14 16 18 19 20 21 23 24 25 26 27 28 29 30 30 31 31 30 29 28 27 26 24 22
15 14 13 13 12 11 10 9 8 7 6 5 4 3 4 5 7 9 10 12 14 15 17 18 19 20 22 23 25 26 26 27 28 29 30 30 30 30 30 29 27 26 25 24
14 14 14 13 12 11 11 10 9 8 7 6 5 5 4 5 7 9 10 11 13 14 16 17 19 20 21 22 24 25 26 26 27 28 29 30 30 29 30 30 29 28 26 25
14 14 14 14 13 12 11 10 10 9 8 7 6 6 6 6 7 9 10 11 12 14 15 17 18 19 20 21 23 24 25 25 26 27 28 29 29 29 29 29 29 29 28 26
14 14 14 14 13 12 11 10 10 9 8 8 7 7 7 8 8 9 10 12 13 14 15 16 17 18 20 21 22 23 24 25 25 26 26 27 27 28 28 28 28 28 28 27
14 14 14 14 13 12 11 10 10 9 9 8 8 8 9 9 10 10 11 12 13 14 15 16 17 18 19 20 21 22 23 24 24 25 25 25 26 26 26 27 27 27 27 26
14 14 14 14 13 12 11 10 10 11 10 10 10 10 10 11 11 12 12 13 14 15 16 17 17 18 19 20 21 22 22 23 23 24 24 24 24 25 25 25 26 26 26 25
14 14 14 14 13 12 12 12 12 12 12 12 12 12 13 13 13 13 14 15 15 16 17 17 18 19 20 20 21 21 22 22 22 23 23 23 23 23 23 23 24 24 24 23
15 15 15 15 14 14 13 13 13 14 14 14 14 14 14 15 15 16 16 17 17 17 18 18 19 20 20 21 21 21 22 22 22 22 22 22 22 22 22 22 22 22 22 22
16 16 16 15 15 15 15 15 15 15 16 16 16 16 16 17 17 18 18 18 19 19 19 19 20 21 21 22 22 22 22 22 22 22 22 22 22 22 21 21 21 21 21 20
17 17 17 17 16 16 17 17 17 18 18 18 18 19 19 19 20 20 20 20 20 21 21 21 22 22 23 23 23 23 23 23 22 22 22 22 22 21 21 21 20 20 20 19
19 19 19 19 19 19 19 19 19 20 20 20 21 21 21 21 22 22 22 22 22 22 23 23 24 24 24 24 24 24 23 23 23 23 22 22 22 21 21 21 20 19 19 18

GEFSCGP_500_meanwind_102.txt.gz
Wind_Speed
19 19 17 14 12 14 12 12 13 13 14 14 14 14 14 14 14 14 16 17 19 21 23 24 24 25 26 27 27 28 28 27 27 26 26 25 24 23 22 22 21 21 21 22
20 18 15 14 15 15 14 13 12 13 13 13 12 12 12 12 12 14 15 17 19 21 22 23 25 25 26 26 27 28 28 28 27 27 26 25 24 23 22 20 19 19 20 20
19 16 15 16 17 16 15 14 13 12 12 12 11 10 10 9 10 12 14 16 18 20 21 23 24 25 25 26 27 28 29 29 28 27 26 25 25 24 22 20 18 18 18 18
19 18 17 18 17 16 15 14 12 11 11 10 9 9 9 10 10 11 13 15 17 19 21 22 24 24 25 26 27 28 29 29 29 28 27 26 25 24 23 20 18 17 16 16
20 20 19 18 17 16 15 12 10 9 9 8 8 8 10 10 10 11 13 15 16 18 20 22 23 24 25 26 27 28 29 30 29 29 28 27 26 25 24 22 20 18 17 16
21 20 19 18 17 15 13 11 9 7 6 6 7 8 10 10 11 12 13 14 16 18 20 22 23 24 25 26 27 28 29 29 29 29 29 28 28 26 25 23 21 20 18 16
21 20 19 18 16 14 12 10 8 4 4 7 10 11 11 10 11 11 12 14 15 17 19 21 22 23 24 26 27 28 29 29 29 29 29 29 29 28 26 25 22 21 19 17
16 16 17 16 15 14 12 11 10 8 7 9 11 12 9 8 9 10 11 13 15 17 18 20 21 23 24 25 26 28 29 29 30 30 30 30 29 29 28 26 24 22 20 18
12 14 16 15 15 14 12 11 11 10 9 8 8 11 8 8 9 9 11 12 14 16 17 19 20 22 23 25 26 27 29 30 30 30 30 30 30 29 29 28 26 24 21 19
15 15 16 15 15 14 13 12 11 10 10 7 6 11 9 6 8 9 10 12 13 15 16 18 19 21 23 24 26 27 28 29 30 31 31 31 30 30 29 29 27 25 22 20
18 14 14 14 14 13 13 12 12 11 10 9 9 12 8 8 8 9 10 11 13 14 15 17 19 20 22 24 25 27 28 29 30 31 31 31 31 31 30 29 28 27 24 22
20 14 10 11 12 13 13 13 13 12 12 11 11 10 8 8 8 8 9 11 12 13 15 16 18 20 21 23 25 26 27 28 30 30 31 31 32 31 31 30 29 28 26 24
23 19 12 10 11 12 13 13 13 12 12 11 11 10 8 8 8 8 9 10 11 13 14 16 18 19 21 22 24 25 27 28 29 30 31 31 31 31 31 31 30 29 28 25
22 21 17 13 13 13 13 13 13 13 13 12 11 10 9 8 8 8 8 10 11 12 14 15 17 19 20 22 23 25 26 27 28 29 30 30 30 31 31 31 31 30 28 26
20 20 19 16 16 15 14 14 14 13 13 13 12 11 10 9 8 8 9 10 11 12 14 15 17 18 19 21 22 24 25 26 27 28 29 29 30 30 31 30 30 30 29 27
19 18 19 17 17 17 15 14 14 14 14 13 12 12 11 10 10 9 10 10 11 13 14 16 17 18 19 20 21 23 24 25 26 27 28 28 29 29 29 30 29 30 29 27
17 17 18 17 16 16 15 14 14 14 14 13 13 13 12 12 11 11 11 11 12 13 14 16 17 18 19 20 21 22 23 25 26 26 27 27 27 28 28 29 29 29 29 28
16 17 17 16 15 15 14 13 14 14 14 14 14 13 13 13 13 12 12 12 13 14 15 16 17 18 19 20 21 22 23 24 25 25 26 26 26 27 27 27 28 28 28 27
16 16 16 16 16 15 14 13 14 14 14 14 14 14 14 14 14 13 13 14 14 15 16 17 18 19 19 20 21 22 23 23 24 25 25 25 25 26 26 26 26 26 26 26
15 16 16 16 16 15 16 12 14 15 15 14 15 15 15 15 15 14 14 15 15 16 17 18 18 19 20 20 21 21 22 23 24 24 24 24 24 24 24 25 25 25 24 24
15 16 16 16 17 18 16 13 15 16 15 14 15 15 15 15 16 15 16 16 16 17 18 18 19 20 20 21 21 22 22 23 23 24 24 24 24 24 24 24 24 24 23 23
16 17 17 18 19 19 16 16 17 16 15 16 16 16 16 16 16 17 17 17 18 18 19 20 20 21 21 21 22 22 23 23 24 24 24 24 24 23 23 23 23 23 22 22
18 18 19 20 20 18 17 17 18 18 18 18 18 17 17 18 18 18 18 19 19 20 20 21 21 21 21 22 22 23 23 24 24 24 24 24 24 24 23 23 23 22 22 21
20 20 20 20 20 19 19 19 19 20 19 19 19 19 19 19 20 20 20 21 21 21 22 22 22 22 22 23 23 24 24 24 25 25 25 25 25 24 24 23 23 22 22 21
22 21 21 21 21 20 20 20 21 21 21 21 21 21 21 22 22 22 22 23 23 23 23 23 23 24 24 24 24 25 26 26 26 26 26 26 26 25 25 24 24 23 23 22
23 23 23 23 23 23 22 22 22 23 23 23 23 23 23 23 24 24 24 24 24 25 25 25 25 25 26 26 26 27 27 28 28 28 28 27 27 27 26 26 25 25 24 23

GEFSCGP_500_meanwind_108.txt.gz
Wind_Speed
25 23 20 19 18 16 14 13 11 9 8 7 5 5 5 5 5 7 8 11 13 15 16 18 20 21 22 23 24 25 25 26 26 26 26 25 24 22 21 20 19 17 17 17
24 21 19 20 19 16 14 12 11 9 8 7 5 4 4 5 5 6 8 10 13 15 16 18 20 21 22 23 24 25 26 26 27 27 26 26 25 23 21 20 19 18 17 16
22 19 20 20 18 16 14 12 10 9 8 7 5 5 4 4 4 6 8 10 13 15 16 18 19 21 21 22 23 25 26 26 27 27 27 27 26 24 22 21 20 19 17 16
22 21 22 20 17 15 13 11 10 8 7 6 5 5 4 4 4 5 7 9 11 14 15 17 19 20 21 22 23 24 25 26 27 28 28 28 27 25 23 22 21 20 18 17
21 21 21 19 16 14 12 10 9 8 7 6 6 4 2 2 3 4 6 8 10 12 14 16 18 19 20 21 23 24 25 26 28 28 29 28 27 26 24 23 22 21 20 18
20 20 19 17 15 13 11 10 9 9 8 8 7 5 3 1 2 3 5 7 10 11 13 15 16 18 20 21 23 24 25 27 28 28 28 28 28 27 26 24 23 22 21 19
20 20 18 16 15 13 12 11 10 10 10 10 8 6 3 2 2 3 4 6 9 11 12 14 16 17 19 21 22 24 25 27 27 28 28 28 28 28 27 25 24 23 22 20
19 18 17 16 14 13 12 11 11 11 12 10 9 7 4 4 3 3 4 6 8 10 11 13 15 16 18 20 22 23 25 26 27 28 28 28 28 28 28 26 25 24 23 21
17 17 16 14 13 13 12 11 11 11 12 11 10 8 6 5 4 4 5 6 8 9 10 12 14 16 18 20 21 23 25 26 27 28 28 28 28 28 28 27 26 25 24 21
16 15 15 14 13 12 12 11 11 11 12 12 11 9 7 6 5 4 5 5 7 8 10 12 14 15 17 19 21 22 24 25 26 27 27 27 28 28 28 27 27 26 25 22
16 15 15 14 12 11 12 12 12 11 12 12 12 10 8 7 5 5 5 5 6 8 9 11 13 15 16 18 20 22 23 25 25 26 27 27 28 28 27 27 27 27 26 24
16 15 15 14 13 13 12 13 12 12 12 13 12 10 10 7 6 6 5 5 6 8 9 11 13 14 16 18 19 21 23 24 25 26 27 27 27 28 27 27 27 27 27 25
17 15 14 14 14 13 13 13 13 13 13 12 11 10 10 7 6 6 6 6 6 8 10 11 13 14 16 17 19 20 22 23 25 25 25 26 27 28 27 27 26 26 26 26
17 16 15 14 14 14 13 13 13 12 12 12 12 11 9 7 6 7 6 7 7 8 10 11 13 14 15 17 18 20 21 23 24 25 25 25 26 27 27 27 26 26 25 25
18 17 17 16 15 15 14 13 13 13 13 13 12 11 9 8 7 7 7 7 8 9 10 11 13 14 15 17 18 19 21 22 23 24 24 25 25 26 26 26 26 26 25 24
19 19 20 19 18 17 15 14 14 13 13 13 13 12 11 10 9 8 8 9 9 10 11 12 13 14 15 17 18 19 20 21 22 23 24 24 25 25 25 25 25 25 25 24
19 20 21 21 21 19 17 16 15 14 14 14 13 13 12 11 10 9 9 10 10 11 11 12 13 14 15 17 18 19 19 20 21 23 23 24 24 24 24 24 24 24 24 23
17 19 20 21 21 21 16 17 17 16 15 15 14 13 12 12 11 11 11 11 11 12 12 13 14 15 15 17 18 18 19 20 21 22 23 23 23 23 23 23 23 23 23 22
16 17 19 20 21 19 17 17 17 17 16 15 14 14 13 12 12 12 12 12 12 13 13 14 14 15 16 16 17 18 19 19 20 21 22 23 23 23 23 22 22 22 22 22
16 17 18 19 19 18 16 16 17 17 15 15 15 14 14 13 13 13 13 13 13 14 14 15 15 16 16 17 18 18 19 19 20 21 22 22 23 23 22 22 22 22 22 21
16 17 18 18 18 16 15 16 16 16 14 15 15 15 14 14 14 14 14 14 14 14 15 15 16 16 17 18 18 19 19 20 21 21 22 22 23 23 22 22 22 22 22 21
17 17 18 19 18 15 15 16 16 16 16 15 15 15 15 14 14 14 14 15 15 15 16 16 16 17 18 18 19 19 20 21 21 21 22 23 23 23 23 22 22 22 22 22
18 18 18 19 18 17 17 17 17 17 16 16 16 16 16 15 15 15 16 16 16 17 17 17 18 18 19 19 20 20 21 21 22 22 23 23 24 24 24 23 23 23 22 22
20 20 20 20 18 18 18 18 18 18 18 17 17 17 17 16 16 17 17 17 18 18 18 19 19 20 20 21 21 21 22 22 23 23 24 24 24 24 24 24 24 24 23 23
22 23 23 22 20 20 19 19 19 19 19 18 18 18 18 18 18 18 18 19 19 20 20 20 21 21 21 22 22 22 23 23 24 25 25 25 25 24 24 24 25 25 24 24
23 25 26 24 23 24 22 22 21 21 20 20 20 20 20 19 19 19 20 20 21 21 21 21 22 22 22 23 23 24 24 25 25 25 25 25 25 25 25 26 26 26 26 26

GEFSCGP_500_meanwind_114.txt.gz
Wind_Speed
26 25 22 20 20 19 17 15 14 14 13 13 12 10 9 8 8 7 7 6 6 5 6 8 10 13 15 16 18 20 22 23 24 25 26 26 26 26 25 24 23 21 20 19
24 22 20 22 21 18 16 15 14 13 13 12 12 10 9 9 8 8 7 6 5 5 6 8 10 12 14 16 18 20 22 24 25 25 26 26 26 26 26 24 23 22 21 19
21 20 21 21 20 17 16 14 14 13 13 13 12 10 10 9 8 8 7 6 5 5 6 7 10 12 14 16 18 20 22 24 25 25 25 26 26 26 26 25 24 23 21 20
20 20 21 20 18 16 15 15 15 14 13 12 11 10 9 9 8 8 7 6 5 4 5 7 9 11 14 16 18 20 22 24 25 25 26 26 26 27 26 26 24 23 22 20
18 19 19 18 17 16 16 15 15 14 13 12 11 10 9 8 8 8 7 6 5 4 5 7 9 11 14 16 18 20 22 24 24 25 26 26 26 27 26 26 25 24 23 21
18 18 18 17 17 17 16 15 15 14 13 12 11 10 9 9 9 8 7 7 6 5 5 7 9 11 13 15 18 20 22 24 24 25 26 26 27 27 27 26 25 25 23 21
17 17 17 16 17 16 16 16 15 14 13 12 11 10 9 9 9 8 8 7 6 5 6 7 9 11 13 15 17 20 22 23 24 25 26 26 27 27 27 26 26 25 25 23
15 15 15 16 16 16 16 15 15 14 13 11 11 10 9 10 9 8 7 7 6 5 5 7 9 11 13 14 17 19 21 23 24 25 25 26 27 27 27 27 26 25 25 24
14 14 15 15 15 15 15 15 15 14 13 12 11 10 10 10 9 8 7 7 6 6 6 7 9 10 12 14 16 18 20 22 24 25 25 26 26 27 27 27 26 25 25 24
14 14 16 16 15 14 13 14 14 14 13 13 11 11 10 10 10 8 8 7 6 6 6 7 9 10 12 14 15 18 20 21 23 24 25 25 26 26 27 27 27 26 24 23
12 13 14 15 15 14 13 13 13 14 14 13 12 11 11 10 10 9 8 8 7 7 7 7 8 10 11 13 15 17 19 20 22 23 25 25 26 26 26 27 27 26 25 24
12 12 13 13 14 14 13 13 13 13 13 13 12 10 11 11 10 9 9 8 8 7 7 7 8 10 11 12 14 16 18 19 21 22 23 25 25 26 26 26 26 26 25 24
12 13 13 13 14 14 13 12 12 13 13 13 12 10 11 11 10 10 10 9 9 8 8 8 8 10 11 12 14 16 17 19 20 21 22 24 25 25 26 26 26 26 25 24
12 13 13 13 14 14 14 13 13 13 13 12 11 10 11 11 11 11 10 10 9 9 9 9 9 10 11 12 14 15 17 18 19 20 21 23 23 24 25 25 25 25 25 24
11 12 13 14 14 15 14 14 13 13 13 13 11 11 12 12 12 12 11 11 10 9 9 9 10 10 11 12 13 15 16 17 19 20 20 21 22 23 24 24 24 24 24 24
12 13 14 14 15 15 15 14 14 14 14 13 12 11 13 12 12 13 13 12 11 10 10 10 10 11 11 12 13 15 16 17 18 19 20 20 21 22 23 23 24 24 23 23
13 15 16 16 17 17 15 14 15 15 15 15 14 13 14 13 13 14 14 13 12 11 11 11 11 11 12 12 13 14 16 17 18 18 19 20 21 21 22 22 23 23 22 22
13 15 16 17 18 19 15 16 17 17 16 16 15 15 15 14 14 14 14 13 13 12 12 12 12 12 12 13 14 15 16 16 17 18 19 20 20 21 21 21 22 22 22 21
15 16 17 17 18 18 16 17 18 17 16 16 16 15 15 15 15 14 14 14 13 13 13 13 12 12 13 13 14 15 16 16 17 18 18 19 20 20 21 21 21 21 21 21
16 17 18 18 18 17 15 17 18 17 16 16 17 16 16 16 16 15 15 15 14 14 14 14 13 13 13 14 14 15 16 17 17 18 18 19 20 20 20 20 20 21 21 21
17 18 18 18 18 16 15 16 17 17 16 17 18 18 17 17 17 17 16 15 15 15 15 15 14 14 14 15 15 16 16 17 17 18 18 19 20 20 20 20 20 20 20 21
19 19 19 19 18 16 17 17 17 17 18 18 18 18 19 19 18 18 17 17 16 16 16 16 15 15 15 16 16 16 17 17 18 18 19 19 20 20 20 20 20 20 20 21
22 21 21 20 19 19 19 19 19 20 19 19 19 19 19 20 19 19 18 18 18 17 17 17 17 17 17 17 17 17 18 18 18 19 19 20 20 20 20 20 21 21 21 21
24 24 24 23 21 21 21 21 22 22 22 21 21 21 21 21 20 20 20 20 19 19 18 18 18 18 18 18 18 19 19 19 19 20 20 20 20 20 20 21 21 22 22 21
26 27 27 26 24 25 24 24 24 24 24 23 23 23 22 22 22 21 21 21 20 20 20 20 20 20 20 20 20 20 20 20 21 21 21 21 21 21 21 22 22 22 23 22
28 30 30 29 28 29 27 27 27 26 26 25 25 24 24 23 23 23 23 22 22 22 22 21 21 21 21 21 21 21 21 22 22 22 22 22 22 22 23 23 23 23 24 23

GEFSCGP_500_meanwind_120.txt.gz
Wind_Speed
17 17 16 16 17 18 17 16 15 15 15 14 12 11 11 11 10 9 8 8 8 8 8 8 8 8 9 10 11 13 15 17 17 18 18 19 20 21 22 22 22 20 19 18
15 15 16 18 18 17 16 15 15 15 15 13 11 11 11 10 10 9 9 9 8 8 8 8 8 8 8 9 11 13 15 16 18 18 19 19 20 21 22 22 22 21 20 19
14 15 17 18 17 16 15 15 15 15 14 12 10 10 10 10 10 9 9 8 8 8 8 7 7 7 8 9 11 13 14 16 18 18 19 19 20 21 22 22 22 21 20 19
14 15 16 16 15 15 15 15 14 14 12 11 10 10 10 10 10 9 9 8 8 8 7 7 7 7 8 9 11 12 14 16 18 19 19 20 21 21 22 22 22 22 21 20
12 13 14 15 15 15 14 14 13 12 11 10 10 10 10 10 10 9 8 8 8 7 7 7 7 7 8 9 10 12 14 16 18 19 19 20 21 21 22 22 22 22 21 20
11 12 14 14 15 14 14 13 13 11 10 10 9 9 10 10 10 9 8 8 8 7 7 7 7 8 8 9 10 12 13 15 17 19 20 20 21 21 22 22 22 22 21 20
10 11 13 13 13 13 14 12 11 10 10 10 9 9 9 10 10 9 9 8 8 8 7 7 7 8 8 9 10 11 13 15 16 18 20 21 21 22 22 22 22 21 21 20
9 11 12 12 12 12 12 11 11 10 10 10 9 10 10 10 10 10 9 8 8 8 8 7 7 7 8 9 10 11 13 14 16 18 19 21 22 22 22 23 22 21 20 20
9 10 11 11 12 12 11 10 10 10 10 10 9 9 10 11 11 11 10 9 9 8 8 8 7 7 8 9 10 11 12 14 15 17 19 20 21 22 22 22 22 22 21 20
7 9 10 11 11 12 11 10 10 10 9 8 9 10 11 11 12 11 11 10 9 9 9 8 7 7 8 9 9 10 12 13 15 16 18 19 21 22 22 22 22 22 21 20
6 8 9 10 10 10 10 9 9 9 9 8 9 11 11 12 12 12 12 11 10 10 9 8 8 8 8 9 9 10 11 13 14 15 17 18 20 21 21 21 22 22 21 21
6 8 9 9 9 9 10 10 9 9 9 9 10 11 11 12 12 12 12 12 11 11 10 9 9 8 8 9 9 10 11 13 14 15 16 17 18 20 21 21 21 21 21 21
5 7 8 9 9 9 10 10 10 10 10 10 10 11 12 12 13 13 13 12 11 11 11 10 9 9 9 9 10 10 11 12 13 15 16 17 18 19 20 20 21 21 21 21
5 7 9 10 11 10 11 11 11 11 11 11 11 11 12 12 12 12 13 12 12 11 11 11 10 10 10 10 10 11 11 12 13 14 15 16 17 18 19 19 20 20 20 20
5 7 9 11 11 11 12 13 13 13 12 12 12 13 13 13 13 13 13 13 13 12 12 11 11 11 11 11 11 11 11 12 13 14 15 16 16 17 17 18 18 19 19 20
7 8 9 11 12 12 13 14 15 14 14 14 14 14 15 15 15 14 14 14 14 13 13 13 12 12 12 11 11 12 12 12 13 14 15 15 16 16 16 17 17 18 18 19
9 10 11 12 14 15 14 14 15 16 16 16 15 14 16 16 16 15 15 15 15 15 14 14 13 13 13 12 12 12 12 13 13 14 14 15 15 16 15 16 16 17 17 17
11 12 13 13 14 16 15 15 16 17 17 18 17 17 17 17 16 16 16 16 15 15 15 15 15 14 14 13 13 13 13 13 13 14 14 15 15 15 15 15 15 16 16 16
14 14 15 15 16 16 15 16 17 18 18 18 18 18 18 18 17 16 16 16 16 16 16 16 15 15 15 14 14 14 14 14 14 14 14 14 15 15 15 15 15 15 15 16
16 17 18 18 18 17 16 17 18 18 19 19 19 19 19 18 18 17 17 17 17 17 17 17 16 16 16 15 15 15 14 14 14 14 14 15 15 15 15 15 15 15 15 15
19 19 20 20 20 19 18 18 19 19 19 19 20 20 19 19 19 18 18 18 18 17 17 17 17 17 17 16 16 16 15 15 15 15 15 15 15 15 15 15 15 15 16 16
22 22 22 22 23 22 21 21 21 20 21 21 21 21 20 19 19 19 19 19 19 18 18 18 18 18 18 17 17 17 16 16 16 16 16 16 16 16 16 16 16 16 16 16
24 25 25 25 25 25 24 24 23 23 22 22 22 21 21 21 20 20 20 20 20 20 20 20 19 19 19 18 18 18 17 17 17 17 17 17 17 17 17 17 17 17 17 17
27 27 27 27 27 27 27 27 26 26 25 24 24 23 23 22 22 21 21 21 21 21 21 21 21 20 20 20 19 19 19 18 18 18 18 18 18 18 18 17 17 17 18 17
30 30 30 30 29 30 30 30 29 29 28 27 26 25 25 24 24 23 23 22 23 22 22 22 22 22 22 21 21 20 20 20 19 19 19 19 19 19 19 18 18 18 18 18
33 33 34 33 32 33 32 33 32 32 31 31 30 29 28 28 26 26 25 24 24 24 24 24 24 23 23 23 22 22 22 21 21 21 20 20 20 20 20 19 19 19 19 19

GEFSCGP_500_meanwind_126.txt.gz
Wind_Speed
12 14 14 14 15 16 15 14 13 12 13 12 12 12 11 12 10 9 9 9 9 8 7 7 7 8 9 10 11 12 14 15 17 18 19 20 20 20 21 21 22 22 22 21
10 11 12 14 15 15 15 14 15 14 13 11 10 10 10 10 10 9 9 9 9 9 8 7 8 8 9 10 11 12 13 15 16 17 19 20 20 21 21 21 22 22 22 21
8 8 11 13 15 15 14 14 14 13 12 11 9 8 8 8 9 9 8 9 9 9 9 8 8 8 9 10 11 12 13 14 15 17 19 20 21 21 21 21 22 22 22 22
7 9 12 13 14 13 13 12 13 12 11 9 8 7 9 8 9 8 8 8 9 9 9 8 8 8 9 9 10 12 13 14 15 17 18 20 21 21 21 22 22 22 22 21
7 8 10 11 12 13 13 11 11 10 9 7 6 6 9 10 10 8 7 8 8 9 9 8 8 8 9 9 10 12 13 14 16 17 18 20 21 21 22 22 22 22 21 21
6 7 8 9 10 11 10 9 9 6 5 5 5 6 8 10 11 8 8 9 9 9 9 8 8 9 9 9 10 11 13 14 15 17 18 19 20 21 22 21 22 22 21 21
2 4 5 7 8 9 8 8 7 5 3 3 4 7 9 11 10 10 9 9 9 9 9 9 8 9 9 9 10 11 12 14 15 16 18 19 20 21 21 22 22 22 22 21
0 2 4 5 7 7 8 7 7 5 3 3 4 6 10 10 9 11 11 10 10 10 10 9 9 9 9 9 10 11 12 14 15 16 17 18 20 21 22 22 22 22 22 21
1 1 3 4 6 7 7 7 6 4 3 2 2 7 11 10 10 11 11 11 11 11 10 10 9 9 9 9 10 11 12 13 15 16 17 18 19 20 21 22 22 22 22 22
1 1 2 3 5 6 7 7 7 5 4 2 3 6 11 12 10 10 11 11 11 11 11 10 10 10 10 10 10 11 12 13 15 16 17 18 19 20 21 21 22 22 22 22
2 1 2 3 4 5 6 6 7 6 5 4 4 7 12 14 13 12 12 12 12 12 12 11 11 11 10 10 11 11 12 13 14 16 16 17 18 19 20 20 21 22 22 22
2 1 1 2 3 5 6 8 8 9 7 7 7 10 13 15 13 13 13 13 13 12 12 12 12 11 11 11 11 11 12 13 14 15 16 17 18 18 19 20 20 21 21 21
2 3 2 3 4 5 7 9 9 10 9 8 9 10 13 15 15 14 13 13 13 13 13 13 13 12 12 12 12 12 12 13 14 15 16 16 17 18 18 19 19 20 21 21
4 4 4 4 6 8 9 9 10 11 11 10 11 13 14 15 16 16 15 15 15 14 14 14 13 13 13 12 12 12 13 13 14 15 16 16 17 17 18 18 19 19 20 20
5 6 7 7 8 10 11 11 12 12 13 14 14 15 15 16 17 17 17 16 16 15 15 14 14 13 13 13 13 13 13 13 14 15 15 16 16 17 18 18 18 18 19 19
8 8 8 9 10 11 12 12 13 14 14 15 17 17 17 19 18 18 18 17 17 16 16 15 15 14 14 14 14 14 14 14 14 15 15 16 16 17 17 17 18 18 18 18
10 11 11 10 11 13 13 13 14 15 16 17 19 19 19 19 19 19 19 18 17 17 16 16 16 15 15 15 15 15 14 14 14 15 15 15 16 16 17 17 17 17 17 17
13 13 13 13 13 14 13 15 16 17 17 18 19 19 19 20 20 20 19 19 18 17 17 17 17 17 17 16 16 16 15 15 15 15 15 15 16 16 16 17 17 17 17 17
16 16 16 16 16 17 16 17 18 18 19 19 20 20 20 21 21 20 20 20 19 18 18 18 18 18 18 18 18 17 16 16 16 15 15 15 15 16 16 16 17 17 17 17
18 18 19 19 19 20 19 19 19 19 21 21 21 21 21 21 21 21 21 20 20 19 19 19 19 19 19 18 18 18 17 17 17 16 16 16 16 16 16 16 16 17 17 17
21 21 21 22 22 21 22 22 22 22 23 23 23 23 22 22 22 22 22 21 21 20 20 20 20 20 20 19 19 19 18 18 17 17 17 16 16 16 16 16 17 17 17 17
25 25 24 24 24 24 24 25 25 26 26 27 26 25 25 25 24 24 23 22 22 22 21 21 21 21 20 20 20 19 19 18 18 18 17 17 17 17 17 17 17 17 17 17
28 28 28 28 27 27 28 28 28 29 29 29 29 28 28 27 27 26 25 24 24 23 23 23 23 22 22 21 21 20 20 19 19 19 18 18 18 18 18 17 17 17 17 16
31 31 32 31 30 30 32 32 32 31 32 32 31 31 30 30 29 29 28 27 26 25 25 24 24 23 23 23 22 22 21 21 20 20 20 19 19 19 19 18 18 18 17 17
34 34 34 34 33 34 34 35 35 35 36 35 34 33 32 32 32 31 30 29 28 27 27 26 26 25 24 24 24 23 23 23 22 22 21 21 20 20 20 20 19 19 19 18
36 36 37 37 36 38 37 37 37 38 38 37 36 36 35 35 34 34 33 32 31 30 29 29 28 27 27 26 25 25 25 24 24 24 23 22 22 21 21 21 21 20 20 20

GEFSCGP_500_meanwind_132.txt.gz
Wind_Speed
9 10 11 11 11 13 12 11 11 11 11 10 8 7 8 9 8 8 7 6 5 5 5 5 5 5 5 5 5 6 7 9 11 13 14 15 16 17 18 19 19 19 20 19
7 9 10 10 11 11 10 10 9 10 8 7 7 6 6 7 7 7 7 6 6 5 5 5 5 5 5 5 6 6 7 9 11 13 14 15 16 17 18 19 19 19 20 20
6 7 8 8 9 9 8 8 10 9 8 7 6 5 5 5 6 6 5 5 5 5 5 5 5 5 5 5 6 6 7 9 11 13 14 15 16 17 18 18 19 19 19 20
6 6 7 8 7 7 7 7 8 7 6 6 5 4 4 4 4 4 4 4 3 4 5 5 5 5 5 6 6 6 7 9 11 12 14 15 16 17 18 18 19 19 20 20
5 5 5 6 6 7 6 8 7 6 5 5 4 4 3 3 3 3 3 3 3 4 5 5 5 5 6 6 6 6 7 8 11 12 14 15 16 17 18 18 19 19 20 20
5 5 4 5 5 6 6 6 5 5 5 4 4 3 2 1 2 3 3 3 4 4 4 5 5 5 6 6 6 7 8 9 10 12 13 14 15 16 17 18 19 19 20 20
6 5 5 5 5 5 5 5 5 6 6 5 4 2 2 1 0 1 3 4 4 4 4 5 5 6 6 6 6 7 8 9 10 12 13 14 15 16 17 18 19 19 19 19
6 6 5 5 5 4 5 5 5 5 5 5 4 2 1 1 2 2 3 4 4 5 5 5 6 6 6 7 7 7 8 9 10 12 13 14 14 15 16 18 18 19 19 19
7 6 5 5 4 4 5 5 4 5 5 5 4 2 0 1 2 3 3 4 4 5 5 6 7 7 7 7 7 8 9 9 10 11 12 13 14 15 16 17 18 18 18 19
6 6 5 4 3 3 4 4 4 5 5 5 4 3 2 3 3 3 3 4 4 5 6 7 8 8 8 8 8 8 9 9 10 11 12 13 14 15 16 16 17 18 18 18
5 4 4 3 3 3 3 3 3 4 5 5 6 4 5 5 5 5 4 5 5 5 7 7 8 9 9 9 9 9 9 10 10 11 12 13 13 14 15 16 16 17 18 18
3 3 2 2 3 3 3 3 4 5 5 6 7 6 7 6 6 6 6 6 6 7 7 8 8 9 10 10 10 10 10 10 11 11 12 13 13 14 14 15 16 16 17 18
2 1 1 1 1 1 2 3 5 6 7 7 8 7 7 7 7 7 7 7 8 8 9 9 9 9 10 11 10 10 10 11 11 11 12 13 13 13 14 14 15 16 16 17
2 1 1 1 2 3 4 5 6 7 8 9 9 10 9 10 9 9 9 9 10 10 9 10 10 10 10 11 11 11 11 11 12 12 12 13 13 13 13 14 14 15 16 16
3 2 3 3 4 5 5 5 7 9 10 11 10 11 11 12 12 11 11 11 12 12 12 12 12 11 11 11 11 11 12 12 12 12 12 13 13 13 13 13 14 15 15 16
5 5 5 5 6 7 7 7 8 10 12 12 12 12 13 13 13 13 13 13 13 13 13 13 12 12 12 12 12 12 12 12 13 12 13 13 13 13 13 13 14 14 14 15
7 8 8 8 9 9 9 10 11 11 13 14 13 13 14 14 14 14 14 14 15 15 14 14 13 13 13 13 13 13 13 13 14 13 13 14 14 13 13 13 13 14 14 14
10 10 11 11 11 11 11 13 13 14 14 14 15 15 15 15 15 16 16 16 16 16 16 15 15 15 15 15 15 14 14 14 15 15 14 14 14 14 14 13 13 13 13 13
13 13 14 14 14 13 14 15 17 17 17 16 16 17 17 17 18 18 18 18 18 18 17 17 16 16 16 16 16 16 16 16 16 16 15 15 15 15 14 14 13 13 13 13
16 16 17 17 17 17 17 18 19 19 19 18 19 19 20 20 20 19 20 20 20 19 19 18 18 18 18 18 18 17 17 17 17 17 16 16 16 15 15 14 14 13 13 13
18 19 20 21 21 20 19 19 20 21 21 21 22 22 22 22 22 22 22 22 22 22 21 20 20 20 20 20 20 19 19 19 18 18 18 17 17 16 16 15 14 14 13 13
22 22 23 24 24 23 23 23 23 24 24 24 24 24 25 25 25 24 24 24 24 24 24 23 23 22 22 22 21 21 21 20 20 20 19 19 18 17 17 16 16 15 14 14
25 26 27 27 27 26 26 26 27 27 27 27 27 27 27 27 27 27 27 27 26 26 27 27 26 25 25 24 24 23 23 22 22 21 21 20 20 19 18 18 17 16 16 15
28 29 30 30 30 29 30 30 30 30 31 31 30 30 30 29 29 29 29 30 30 29 29 29 29 28 27 27 26 26 25 24 24 23 23 22 22 21 20 20 19 18 17 17
30 32 33 33 33 33 33 33 34 33 33 33 33 34 33 32 31 31 31 31 31 31 31 31 31 31 30 30 29 28 28 27 26 25 25 24 24 23 22 22 21 20 19 19
32 34 36 36 35 37 35 35 36 36 36 35 35 35 36 36 35 34 34 34 33 33 33 34 33 33 33 32 31 30 30 29 28 28 27 27 26 25 24 23 23 22 21 21

GEFSCGP_500_meanwind_138.txt.gz
Wind_Speed
5 7 8 10 10 11 11 11 10 9 9 9 10 9 9 10 10 10 10 10 9 9 9 9 8 8 8 7 7 6 6 7 7 8 10 11 12 13 14 15 16 17 17 17
4 6 7 9 9 9 9 9 9 9 8 8 8 8 8 9 9 9 9 9 9 9 9 9 8 8 8 8 7 6 6 7 8 8 10 11 12 13 14 15 16 17 17 17
4 5 5 6 7 7 7 8 8 8 6 7 7 6 6 7 8 9 9 9 9 9 8 8 8 8 8 8 7 7 6 7 8 9 10 11 12 13 15 16 17 17 17 17
5 5 5 5 7 7 7 7 7 7 6 5 5 5 6 6 7 8 8 9 9 9 9 8 8 8 8 8 7 7 7 7 8 9 10 11 12 14 15 16 17 17 18 18
6 5 5 5 6 6 6 6 6 6 6 6 5 5 5 5 6 7 8 8 9 9 9 8 8 8 8 7 7 7 7 8 8 9 10 11 12 14 15 16 17 17 18 18
6 5 5 5 5 6 6 6 6 5 6 6 6 5 5 4 5 6 8 8 8 8 8 7 7 7 7 7 7 7 8 8 9 9 10 11 12 14 15 16 17 17 18 18
6 5 5 5 6 6 6 6 6 6 6 6 6 6 5 5 5 5 7 7 7 7 7 6 6 7 7 7 8 8 8 8 9 9 10 12 13 13 14 15 16 17 18 18
6 6 5 6 6 7 6 6 5 5 5 5 6 7 5 4 4 4 5 6 7 7 7 7 7 7 7 7 7 7 7 8 8 9 10 12 13 13 14 15 16 17 17 17
6 6 5 6 6 6 6 5 4 4 4 5 5 6 5 4 3 3 4 5 6 6 7 6 7 7 7 7 7 7 7 8 9 10 11 12 13 13 14 15 16 16 17 17
5 4 4 5 5 4 4 4 4 4 4 5 5 4 5 4 3 3 4 5 6 6 6 6 7 7 7 7 8 8 8 8 9 10 11 12 13 13 14 15 15 16 16 16
4 3 3 4 3 3 3 3 3 3 3 4 4 3 4 4 4 4 4 5 6 6 7 7 7 7 7 8 8 9 9 9 9 10 11 12 13 13 14 14 15 15 16 16
2 2 2 2 2 2 2 2 2 2 3 3 3 3 4 5 6 6 6 7 7 7 8 8 8 8 9 9 9 10 10 10 10 11 11 11 12 13 14 14 14 15 15 15
1 1 0 1 1 1 1 2 2 2 2 3 4 4 5 6 7 8 8 8 8 9 9 9 9 10 10 10 10 10 10 11 11 12 12 12 13 13 14 14 14 15 15 15
1 1 1 2 2 2 3 4 4 4 4 5 5 6 7 8 8 9 10 10 10 10 11 11 11 11 11 11 11 11 11 11 12 13 13 13 13 14 14 14 14 14 14 14
3 3 3 3 3 4 5 6 7 7 7 7 7 8 9 9 10 11 12 12 12 12 12 12 12 12 12 12 12 12 12 12 13 13 14 14 14 14 14 14 14 14 14 14
5 5 5 5 6 6 7 8 8 8 9 9 10 10 12 12 12 13 13 14 14 14 14 15 14 14 14 14 14 14 14 13 13 14 14 14 15 14 14 14 14 14 14 14
8 8 8 8 9 10 9 9 10 10 10 11 12 13 14 14 15 15 16 16 16 16 16 16 16 16 16 16 16 15 15 15 15 15 15 15 15 15 15 14 14 14 14 13
10 11 11 11 11 11 11 11 12 12 12 13 14 15 16 17 17 17 18 18 18 19 19 18 19 18 18 18 17 18 18 17 16 17 16 16 16 16 16 15 14 14 14 14
13 13 14 14 14 14 13 13 14 14 14 15 16 18 19 19 19 19 19 20 20 21 21 21 21 21 20 20 20 19 20 19 18 18 18 17 17 17 17 16 15 15 15 14
16 16 16 16 16 16 15 16 16 17 17 18 20 20 21 21 21 21 21 22 22 23 23 23 23 23 23 22 22 21 21 20 20 20 19 19 18 18 18 17 17 16 16 15
18 18 18 18 19 18 18 18 19 20 20 21 22 22 23 23 23 23 23 24 24 24 25 25 25 25 25 25 24 24 23 23 22 21 21 21 20 20 19 19 18 18 17 17
20 21 21 21 21 21 21 21 22 22 23 23 23 24 25 25 26 26 26 26 27 27 27 27 27 28 28 27 27 26 26 25 24 24 23 23 23 22 21 21 20 20 19 18
22 23 23 23 24 24 24 24 25 25 26 26 27 27 27 28 28 29 29 29 29 29 29 29 30 30 30 30 30 29 28 28 27 27 26 26 26 25 24 23 23 22 21 20
24 25 26 26 26 27 27 28 28 28 29 29 30 30 30 30 30 31 31 31 31 31 32 31 31 32 32 32 32 32 31 31 30 30 29 28 28 27 27 26 25 24 24 22
28 29 29 29 30 30 31 31 31 32 32 32 32 33 33 33 33 33 32 32 32 32 32 33 33 33 32 33 33 33 33 32 32 31 30 30 30 30 29 29 28 27 26 25
31 32 33 32 32 33 33 34 34 35 35 35 35 35 35 35 35 34 34 34 34 34 35 35 35 35 34 34 34 35 35 35 34 34 33 33 32 32 31 31 30 29 28 28

GEFSCGP_500_meanwind_144.txt.gz
Wind_Speed
5 6 7 9 10 10 9 9 8 8 8 8 9 8 9 10 10 11 11 12 12 12 11 10 10 9 10 10 10 10 10 10 9 9 9 10 10 10 11 12 13 14 15 15
5 6 7 8 9 9 8 8 7 7 7 8 8 8 8 9 9 10 11 11 11 11 10 10 9 10 9 10 10 11 10 10 9 9 10 10 11 10 11 12 13 14 15 16
6 6 7 8 8 8 8 8 7 6 7 7 7 7 7 7 8 9 9 10 10 10 10 10 10 10 10 10 10 10 10 10 9 10 10 10 10 11 12 13 14 14 15 16
6 7 7 7 7 8 8 7 7 7 7 6 6 5 5 6 6 7 8 8 9 9 10 10 9 10 10 10 10 10 10 10 10 10 10 10 11 11 12 13 14 15 15 16
7 6 7 7 7 7 7 8 8 8 7 6 5 5 4 4 5 5 6 7 8 8 8 9 9 9 9 10 10 10 10 10 10 10 10 11 11 12 12 13 14 15 15 16
7 7 6 7 7 7 8 8 7 7 7 6 6 5 4 4 4 4 5 6 6 6 7 8 8 9 9 9 10 10 10 10 10 10 11 11 11 12 13 13 14 15 15 16
7 6 6 6 7 7 7 8 7 7 7 6 5 5 5 5 5 4 4 5 5 5 6 7 7 8 9 9 10 10 10 11 10 10 11 11 11 12 13 14 14 15 15 16
7 6 6 6 7 7 7 7 8 8 7 6 5 5 5 4 4 4 4 4 5 5 5 6 7 7 8 9 9 9 10 11 11 11 11 11 12 13 13 14 14 15 15 15
7 6 6 6 6 6 6 6 7 7 6 5 4 4 4 4 3 3 3 4 4 5 5 6 7 7 8 9 9 10 10 11 11 12 11 11 12 13 13 14 14 15 15 15
6 6 5 6 5 6 6 7 7 6 6 5 4 3 3 3 3 3 3 4 4 5 5 6 6 7 8 9 9 10 11 11 12 12 12 12 12 13 13 13 14 14 14 14
5 5 4 4 4 5 6 6 5 5 5 5 4 4 3 3 3 3 4 4 5 5 7 7 7 8 8 9 10 10 11 11 11 12 13 13 13 13 13 13 14 14 14 14
4 4 3 3 4 4 4 5 4 4 4 5 5 4 4 4 4 4 5 5 6 7 7 8 8 8 9 9 10 10 11 11 12 12 13 13 14 14 14 13 13 13 14 14
3 3 3 3 3 4 4 4 4 4 4 5 5 5 5 5 5 6 6 7 7 8 9 9 10 10 10 11 11 11 11 12 12 12 13 13 14 14 14 14 14 14 14 14
3 3 3 4 4 4 4 4 3 4 5 6 6 7 6 6 7 7 7 8 8 9 9 10 11 12 13 13 13 13 13 13 13 13 13 13 13 14 14 14 14 14 14 14
4 4 4 4 5 5 5 5 5 5 6 7 7 7 7 8 8 8 8 8 9 10 11 12 13 14 14 14 14 14 14 14 14 14 14 13 13 14 14 14 14 14 14 14
6 6 6 6 6 6 6 6 7 7 8 8 8 8 8 8 9 9 9 10 11 11 12 13 14 15 15 15 15 15 15 15 16 15 15 15 15 15 15 15 14 14 14 14
8 8 8 8 9 9 8 9 9 9 9 10 10 10 10 10 10 11 11 12 13 14 15 15 16 16 16 16 17 17 16 17 17 17 17 17 17 16 15 15 15 15 15 14
10 10 10 10 10 11 10 10 11 11 11 11 12 12 12 12 12 13 14 15 15 16 16 17 17 17 17 18 18 18 18 18 18 18 19 19 18 18 17 17 17 16 16 15
12 11 11 11 12 12 11 11 12 12 13 13 13 14 14 14 15 16 16 17 17 18 18 18 18 19 19 19 20 20 20 20 20 21 21 21 21 20 20 19 18 18 17 17
14 14 14 14 14 15 14 13 14 15 14 14 15 16 16 17 17 18 18 19 20 20 20 20 20 20 21 21 21 22 22 23 23 23 23 23 23 23 22 21 21 20 19 19
16 16 16 16 17 17 15 15 16 16 16 17 17 18 18 19 20 20 21 22 22 23 23 23 23 23 23 23 24 24 24 25 25 25 25 25 25 25 24 24 23 22 22 21
19 18 18 18 18 18 17 17 18 18 18 19 19 20 21 22 22 23 23 23 24 24 25 25 25 25 26 26 26 26 27 27 28 28 28 28 27 27 26 25 25 25 24 23
21 21 20 20 20 20 19 19 20 20 20 20 21 22 23 24 25 25 25 25 26 26 27 27 27 28 28 28 29 29 29 29 28 29 29 29 29 29 28 27 27 27 26 26
23 23 23 22 22 22 22 22 22 22 22 23 24 24 25 26 26 27 28 28 29 29 29 30 30 30 31 31 31 31 31 30 30 30 30 30 31 31 30 30 29 29 29 28
24 24 25 25 25 26 26 25 25 25 25 26 26 27 28 28 28 29 29 30 30 31 32 32 32 32 33 33 33 33 33 33 33 33 33 33 33 33 34 33 32 32 32 31
27 27 28 28 28 28 28 28 28 28 28 28 29 29 30 30 30 31 31 32 32 33 33 34 34 34 33 34 34 35 35 35 35 35 35 35 36 36 36 36 35 35 35 34